Simultaneous Nadir Overpasses (SNOs) Predictions

Prediction of SNOs between GOES-15 and METOP-C Satellite Orbit:

Table of predicted SNOs for the next 14.0 days since TLE Epoch: 7/28/2022
Index Date Time (GOES-15) GOES-15 Lat,Lon METOP-C Lat,Lon Distance(km) Time Diff (sec)
1 07/29/2022 06:00:12 0.07,-128.07 0.12,-127.73 38.17 80
2 07/30/2022 18:21:45 -0.02,-128.07 0.89,-132.30 481.44 80
3 07/31/2022 17:58:25 -0.06,-128.04 -0.24,-127.31 83.71 80
4 08/02/2022 06:20:03 0.01,-127.95 -0.87,-131.88 448.04 80
5 08/03/2022 05:56:43 0.05,-127.92 0.26,-126.89 116.58 80
6 08/04/2022 18:18:14 0.00,-127.91 0.81,-131.45 403.90 80
7 08/05/2022 17:54:55 -0.03,-127.87 -0.32,-126.46 160.59 80
8 08/07/2022 06:16:33 -0.02,-127.77 -0.72,-131.05 372.21 80
9 08/08/2022 05:53:14 0.01,-127.73 0.41,-126.06 191.36 80
10 08/09/2022 18:14:44 0.04,-127.70 0.71,-130.60 331.01 80
11 08/10/2022 17:51:25 -0.00,-127.66 -0.43,-125.61 232.53 80
